Home > Weather > Maceió > Past weeks

Flag for Brazil Weather for the Past 2 Weeks in Maceió, Alagoas, Brazil

Now
82 °F

Light rain. Partly sunny.


Feels Like: 91 °F
Forecast: 77 / 85 °F
Wind: 13 mph from Southeast

Location: Maceio Aeroporto

Current Time: Feb 10, 2016 at 10:13:16 AM

Latest Report: Feb 10, 2016 at 10:00 AM


Visibility: 4 mi

Pressure: 30.04 "Hg

Humidity: 84%

Dew point: 77 °F

Location of MaceióLocation

Historic Weather in Maceió — Graph

°F

Maceió Temperature Yesterday

Maximum temperature yesterday: 86 °F (at 1:00 PM)
Minimum temperature yesterday: 73 °F (at 12:00 AM)
Average temperature yesterday: 79 °F

High & Low Weather Summary for the Past Weeks

 TemperatureHumidityPressure
High90 °F (Jan 28, 12:00 PM)100% (Jan 27, 11:00 PM)30.07 "Hg (Jan 27, 11:00 PM)
Low34 °F (Jan 29, 1:00 PM)52% (Feb 6, 3:00 PM)29.89 "Hg (Jan 26, 3:00 PM)
Average79 °F84%29.97 "Hg
* Reported Jan 26 9:00 AM — Feb 10 9:00 AM, Maceió, Weather by CustomWeather, © 2016

Note: Actual official high and low records may vary slightly from our data, if they occured in-between our weather recording intervals... More about our weather records

Advertising

Maceió Weather History for the Previous 24 Hours

 ConditionsComfort  
Time TempWeatherWind HumidityBarometerVisibility
9:00 AM
Wed, Feb 10
79 °FLight rain. Broken clouds.5 mph94%30.04 "Hg4 mi
8:00 AM81 °FBroken clouds.6 mph84%30.04 "Hg4 mi
7:00 AM77 °FScattered clouds.3 mph100%30.01 "Hg5 mi
6:00 AM75 °FScattered clouds.3 mph94%29.98 "HgN/A
5:00 AM75 °FPassing clouds.2 mph100%29.98 "HgN/A
4:00 AM75 °FPassing clouds.2 mph100%29.98 "HgN/A
3:00 AM75 °FPassing clouds.2 mph100%29.98 "HgN/A
2:00 AM75 °FPassing clouds.2 mph100%29.98 "HgN/A
1:00 AM75 °FPassing clouds.2 mph94%30.01 "HgN/A
12:00 AM75 °FPassing clouds.2 mph100%30.01 "HgN/A
11:00 PM
Tue, Feb 9
75 °FPassing clouds.2 mph100%30.04 "HgN/A
10:00 PM77 °FPassing clouds.2 mph94%30.04 "HgN/A
9:00 PM77 °FPassing clouds.3 mph94%30.04 "HgN/A
8:00 PM75 °FPassing clouds.5 mph100%30.04 "HgN/A
7:00 PM79 °FPassing clouds.8 mph89%30.01 "HgN/A
6:00 PM81 °FPassing clouds.10 mph84%29.98 "HgN/A
5:00 PM84 °FScattered clouds.15 mph70%29.98 "HgN/A
4:00 PM86 °FScattered clouds.13 mph66%29.98 "HgN/A
3:00 PM86 °FPartly sunny.15 mph66%29.98 "HgN/A
2:00 PM86 °FPartly sunny.14 mph66%30.01 "HgN/A
1:00 PM86 °FScattered clouds.12 mph70%30.01 "HgN/A
12:00 PM84 °FScattered clouds.15 mph74%30.04 "HgN/A
11:00 AM82 °FPartly sunny.31 mph84%30.07 "HgN/A
10:00 AM82 °FScattered clouds.3 mph79%30.07 "HgN/A
Weather by CustomWeather, © 2016

See weather overviewHow to use our weather pages